WOA2617 EBOS-DNMM

Flight info

Callsign WOA2617
Flight time 5h 52m
Altitude 31000
Route KOK M150 DIK N852 SUTAL DCT TUROM DCT NINTU DCT VATIR N852 PIVUS Z237 SISMO N855 GENIO N859 MOGIL UB31 ZEM/N0481F320 UB726 GHA UM114 ZAWAT/N0489F340 UM114 LITAK/N0490F330 UM114 NASTO/N0489F340 UM114 KIGRA UB731 BUDSI BUDSI1N
Aircraft MD11/H-SDE1E2E3FGHIJ2J3J4J5M1RWXY/L

Departure

Time 2026-04-21 20:07
Airport Ostend-Bruges International Airport (EBOS)

Arrival

Time 2026-04-22 01:59
Airport Murtala Muhammed International Airport (DNMM)
Time Latitude Longitude Altitude Speed Heading
2026-04-21 19:41 51.20389 2.87336 24 ft 0 kts 347°
2026-04-21 19:56 51.20388 2.87336 24 ft 0 kts 347°
2026-04-21 19:56 51.20375 2.87341 24 ft 2 kts 347°
2026-04-21 19:56 51.20360 2.87346 24 ft 2 kts 347°
2026-04-21 19:57 51.20347 2.87351 24 ft 0 kts 347°
2026-04-21 19:57 51.20336 2.87355 24 ft 2 kts 336°
2026-04-21 19:57 51.20324 2.87369 24 ft 2 kts 310°
2026-04-21 19:57 51.20316 2.87389 23 ft 2 kts 290°
2026-04-21 19:58 51.20313 2.87413 22 ft 2 kts 269°
2026-04-21 19:58 51.20314 2.87427 22 ft 0 kts 256°
2026-04-21 19:58 51.20315 2.87432 22 ft 0 kts 256°
2026-04-21 20:00 51.20311 2.87408 22 ft 5 kts 257°
2026-04-21 20:00 51.20301 2.87334 24 ft 6 kts 258°
2026-04-21 20:00 51.20290 2.87254 24 ft 8 kts 257°
2026-04-21 20:00 51.20277 2.87159 23 ft 9 kts 257°
2026-04-21 20:01 51.20259 2.87042 24 ft 11 kts 257°
2026-04-21 20:01 51.20240 2.86911 24 ft 13 kts 256°
2026-04-21 20:01 51.20214 2.86742 21 ft 16 kts 254°
2026-04-21 20:01 51.20148 2.86693 21 ft 10 kts 186°
2026-04-21 20:02 51.20067 2.86676 19 ft 12 kts 199°
2026-04-21 20:02 51.20016 2.86549 16 ft 15 kts 256°
2026-04-21 20:02 51.19989 2.86365 14 ft 17 kts 255°
2026-04-21 20:02 51.19962 2.86194 14 ft 15 kts 257°
2026-04-21 20:03 51.19937 2.86024 17 ft 15 kts 256°
2026-04-21 20:03 51.19911 2.85853 16 ft 16 kts 256°
2026-04-21 20:03 51.19883 2.85671 15 ft 17 kts 257°
2026-04-21 20:03 51.19854 2.85480 15 ft 17 kts 256°
2026-04-21 20:04 51.19814 2.85319 14 ft 13 kts 222°
2026-04-21 20:04 51.19768 2.85262 14 ft 0 kts 204°
2026-04-21 20:05 51.19762 2.85259 14 ft 3 kts 197°
2026-04-21 20:05 51.19717 2.85261 14 ft 8 kts 167°
2026-04-21 20:05 51.19668 2.85287 14 ft 4 kts 133°
2026-04-21 20:05 51.19667 2.85339 14 ft 5 kts 77°
2026-04-21 20:06 51.19697 2.85538 15 ft 49 kts 76°
2026-04-21 20:06 51.19833 2.86449 15 ft 119 kts 76°
2026-04-21 20:06 51.20080 2.88058 20 ft 173 kts 74°
2026-04-21 20:06 51.20374 2.89939 431 ft 179 kts 75°
2026-04-21 20:07 51.20670 2.91865 1053 ft 178 kts 75°
2026-04-21 20:07 51.20941 2.93702 1833 ft 174 kts 77°
2026-04-21 20:07 51.21222 2.95670 2116 ft 188 kts 77°
2026-04-21 20:07 51.21524 2.97750 2495 ft 197 kts 77°
2026-04-21 20:08 51.21845 2.99894 2924 ft 202 kts 77°
2026-04-21 20:08 51.22104 3.02131 3315 ft 213 kts 92°
2026-04-21 20:08 51.21686 3.04461 3520 ft 234 kts 121°
2026-04-21 20:08 51.20467 3.06280 3798 ft 257 kts 149°
2026-04-21 20:09 51.18666 3.07036 4135 ft 279 kts 176°
2026-04-21 20:09 51.16710 3.06383 4553 ft 297 kts 203°
2026-04-21 20:09 51.15062 3.04425 5043 ft 308 kts 229°
2026-04-21 20:09 51.14012 3.01444 5581 ft 313 kts 254°
2026-04-21 20:10 51.13627 2.98017 6216 ft 316 kts 261°
2026-04-21 20:10 51.13143 2.94614 6930 ft 319 kts 251°
2026-04-21 20:10 51.12350 2.91345 7668 ft 321 kts 246°
2026-04-21 20:10 51.11543 2.88016 8346 ft 326 kts 253°
2026-04-21 20:11 51.10752 2.84637 8970 ft 329 kts 238°
2026-04-21 20:11 51.09303 2.81881 9627 ft 327 kts 214°
2026-04-21 20:11 51.07333 2.80219 10242 ft 325 kts 192°
2026-04-21 20:11 51.05094 2.79821 10503 ft 334 kts 169°
2026-04-21 20:12 51.02843 2.80834 10738 ft 342 kts 148°
2026-04-21 20:12 51.00937 2.83164 10934 ft 352 kts 127°
2026-04-21 20:12 50.99659 2.86501 11215 ft 360 kts 107°
2026-04-21 20:12 50.99062 2.90358 11776 ft 365 kts 99°
2026-04-21 20:13 50.98289 2.94225 12347 ft 375 kts 115°
2026-04-21 20:13 50.96779 2.97608 13007 ft 384 kts 131°
2026-04-21 20:13 50.94825 3.00508 13665 ft 389 kts 136°
2026-04-21 20:13 50.92934 3.03579 14246 ft 390 kts 123°
2026-04-21 20:14 50.91615 3.07300 14846 ft 389 kts 111°
2026-04-21 20:14 50.90568 3.11213 15471 ft 392 kts 111°
2026-04-21 20:14 50.89424 3.15142 16041 ft 398 kts 113°
2026-04-21 20:14 50.88205 3.19026 16621 ft 403 kts 114°
2026-04-21 20:15 50.86912 3.23009 17207 ft 407 kts 114°
2026-04-21 20:15 50.85613 3.26954 17773 ft 410 kts 115°
2026-04-21 20:15 50.84282 3.30966 18327 ft 414 kts 115°
2026-04-21 20:15 50.82953 3.34971 18836 ft 419 kts 115°
2026-04-21 20:16 50.81588 3.39080 19365 ft 422 kts 115°
2026-04-21 20:16 50.80229 3.43174 19860 ft 426 kts 114°
2026-04-21 20:16 50.78853 3.47320 20318 ft 431 kts 114°
2026-04-21 20:16 50.77455 3.51538 20774 ft 436 kts 114°
2026-04-21 20:17 50.76052 3.55781 21278 ft 439 kts 114°
2026-04-21 20:17 50.74647 3.60029 21736 ft 444 kts 114°
2026-04-21 20:17 50.73219 3.64357 22183 ft 448 kts 114°
2026-04-21 20:17 50.71782 3.68712 22651 ft 452 kts 115°
2026-04-21 20:18 50.70315 3.73164 23125 ft 456 kts 115°
2026-04-21 20:18 50.68862 3.77585 23593 ft 459 kts 115°
2026-04-21 20:18 50.67383 3.82080 24044 ft 463 kts 115°
2026-04-21 20:18 50.65911 3.86566 24423 ft 468 kts 114°
2026-04-21 20:19 50.64418 3.91115 24813 ft 472 kts 114°
2026-04-21 20:19 50.62915 3.95704 25175 ft 476 kts 114°
2026-04-21 20:19 50.61404 4.00324 25575 ft 480 kts 114°
2026-04-21 20:19 50.59870 4.05022 25940 ft 483 kts 114°
2026-04-21 20:20 50.58333 4.09731 26320 ft 486 kts 114°
2026-04-21 20:20 50.56804 4.14421 26758 ft 487 kts 114°
2026-04-21 20:20 50.55251 4.19190 27056 ft 492 kts 114°
2026-04-21 20:20 50.53667 4.23924 27347 ft 496 kts 115°
2026-04-21 20:21 50.51995 4.28652 27635 ft 500 kts 116°
2026-04-21 20:21 50.50285 4.33469 28080 ft 500 kts 116°
2026-04-21 20:21 50.48607 4.38227 28513 ft 500 kts 115°
2026-04-21 20:21 50.46955 4.42945 28936 ft 500 kts 115°
2026-04-21 20:22 50.45290 4.47722 29343 ft 500 kts 115°
2026-04-21 20:22 50.41980 4.57243 30136 ft 500 kts 115°
2026-04-21 20:22 50.40326 4.62007 30461 ft 501 kts 115°
2026-04-21 20:23 50.38673 4.66776 30834 ft 500 kts 115°
2026-04-21 20:23 50.37024 4.71537 31143 ft 500 kts 115°
2026-04-21 20:23 50.33727 4.81074 31243 ft 500 kts 115°
2026-04-21 20:24 50.30426 4.90639 31251 ft 500 kts 115°
2026-04-21 20:24 50.27145 5.00170 31232 ft 499 kts 115°
2026-04-21 20:25 50.23894 5.09644 31214 ft 499 kts 115°
2026-04-21 20:25 50.20618 5.19212 31226 ft 501 kts 115°
2026-04-21 20:26 50.17345 5.28784 31227 ft 499 kts 115°
2026-04-21 20:26 50.14093 5.38266 31232 ft 500 kts 116°
2026-04-21 20:27 50.10556 5.47637 31223 ft 501 kts 118°
2026-04-21 20:27 50.07020 5.56931 31217 ft 500 kts 117°
2026-04-21 20:28 50.03538 5.66211 31209 ft 499 kts 118°
2026-04-21 20:28 50.00079 5.75459 31209 ft 498 kts 118°
2026-04-21 20:29 49.96605 5.84767 31218 ft 497 kts 118°
2026-04-21 20:29 49.93157 5.94018 31215 ft 496 kts 118°
2026-04-21 20:30 49.89741 6.03195 31226 ft 496 kts 117°
2026-04-21 20:30 49.85790 6.11973 31215 ft 502 kts 132°
2026-04-21 20:31 49.80204 6.18466 31209 ft 509 kts 152°
2026-04-21 20:31 49.73611 6.22301 31216 ft 509 kts 161°
2026-04-21 20:32 49.66996 6.26101 31202 ft 509 kts 157°
2026-04-21 20:32 49.60434 6.30347 31195 ft 513 kts 157°
2026-04-21 20:33 49.53851 6.34535 31184 ft 513 kts 157°
2026-04-21 20:33 49.47176 6.38239 31181 ft 515 kts 168°
2026-04-21 20:34 49.40072 6.38929 31189 ft 514 kts 188°
2026-04-21 20:34 49.33008 6.37204 31186 ft 512 kts 191°
2026-04-21 20:35 49.25970 6.35752 31167 ft 512 kts 189°
2026-04-21 20:35 49.18924 6.34513 31163 ft 512 kts 189°
2026-04-21 20:36 49.11870 6.33332 31173 ft 513 kts 189°
2026-04-21 20:36 49.04791 6.32145 31155 ft 513 kts 190°
2026-04-21 20:37 48.97714 6.30958 31156 ft 513 kts 190°
2026-04-21 20:37 48.90630 6.29773 31154 ft 513 kts 191°
2026-04-21 20:38 48.83534 6.28582 31165 ft 514 kts 191°
2026-04-21 20:38 48.76453 6.27403 31155 ft 515 kts 191°
2026-04-21 20:39 48.69329 6.26204 31161 ft 515 kts 192°
2026-04-21 20:39 48.62223 6.25023 31147 ft 515 kts 192°
2026-04-21 20:40 48.55125 6.23839 31142 ft 516 kts 192°
2026-04-21 20:40 48.47969 6.22684 31147 ft 518 kts 192°
2026-04-21 20:41 48.40846 6.21540 31132 ft 518 kts 193°
2026-04-21 20:41 48.33683 6.20375 31124 ft 519 kts 193°
2026-04-21 20:42 48.26504 6.19212 31132 ft 519 kts 193°
2026-04-21 20:42 48.19382 6.18060 31122 ft 518 kts 194°
2026-04-21 20:43 48.12245 6.16904 31109 ft 517 kts 194°
2026-04-21 20:43 48.05064 6.15735 31109 ft 519 kts 194°
2026-04-21 20:44 47.97897 6.14582 31100 ft 518 kts 195°
2026-04-21 20:44 47.90770 6.13420 31108 ft 519 kts 194°
2026-04-21 20:45 47.83588 6.12258 31107 ft 518 kts 194°
2026-04-21 20:45 47.76501 6.11115 31094 ft 515 kts 195°
2026-04-21 20:46 47.69384 6.09985 31092 ft 515 kts 194°
2026-04-21 20:46 47.62221 6.08869 31074 ft 518 kts 194°
2026-04-21 20:47 47.55101 6.07753 31066 ft 517 kts 194°
2026-04-21 20:47 47.47959 6.06634 31070 ft 516 kts 194°
2026-04-21 20:48 47.40820 6.05510 31063 ft 515 kts 194°
2026-04-21 20:48 47.33732 6.04399 31051 ft 515 kts 194°
2026-04-21 20:49 47.26598 6.03282 31052 ft 515 kts 194°
2026-04-21 20:49 47.19516 6.02166 31049 ft 517 kts 194°
2026-04-21 20:50 47.12364 6.01048 31050 ft 516 kts 194°
2026-04-21 20:50 47.05272 5.99935 31051 ft 514 kts 194°
2026-04-21 20:51 46.98185 5.98823 31043 ft 514 kts 194°
2026-04-21 20:51 46.91082 5.97712 31027 ft 514 kts 194°
2026-04-21 20:52 46.84045 5.96178 31011 ft 506 kts 202°
2026-04-21 20:52 46.77548 5.92835 31009 ft 492 kts 212°
2026-04-21 20:53 46.71258 5.88966 31001 ft 490 kts 212°
2026-04-21 20:53 46.64947 5.85165 31023 ft 492 kts 211°
2026-04-21 20:54 46.58662 5.81412 31005 ft 493 kts 211°
2026-04-21 20:54 46.52303 5.77630 30996 ft 492 kts 211°
2026-04-21 20:55 46.45996 5.73874 31000 ft 492 kts 211°
2026-04-21 20:55 46.39682 5.70113 31007 ft 492 kts 211°
2026-04-21 20:56 46.33354 5.66347 31005 ft 492 kts 211°
2026-04-21 20:56 46.27031 5.62580 30999 ft 493 kts 211°
2026-04-21 20:57 46.20745 5.58836 31002 ft 491 kts 211°
2026-04-21 20:57 46.14378 5.55276 31000 ft 496 kts 207°
2026-04-21 20:58 46.07682 5.52505 31000 ft 502 kts 202°
2026-04-21 20:58 46.00969 5.50014 31002 ft 501 kts 202°
2026-04-21 20:59 45.94275 5.47487 31000 ft 499 kts 202°
2026-04-21 20:59 45.87553 5.44924 31001 ft 498 kts 202°
2026-04-21 21:00 45.80899 5.42391 30994 ft 497 kts 202°
2026-04-21 21:00 45.74228 5.39848 31003 ft 498 kts 202°
2026-04-21 21:01 45.67525 5.37293 31009 ft 498 kts 202°
2026-04-21 21:01 45.60838 5.34748 31001 ft 497 kts 202°
2026-04-21 21:02 45.54163 5.32203 31000 ft 498 kts 201°
2026-04-21 21:02 45.47475 5.29659 31001 ft 497 kts 201°
2026-04-21 21:03 45.40842 5.27130 31000 ft 496 kts 201°
2026-04-21 21:03 45.34190 5.24597 31006 ft 495 kts 201°
2026-04-21 21:04 45.27566 5.22076 31006 ft 494 kts 201°
2026-04-21 21:04 45.20883 5.19616 31001 ft 495 kts 201°
2026-04-21 21:05 45.14229 5.17165 31003 ft 494 kts 201°
2026-04-21 21:05 45.07602 5.14712 31003 ft 494 kts 201°
2026-04-21 21:06 45.00981 5.12262 30998 ft 493 kts 201°
2026-04-21 21:06 44.94376 5.09815 30984 ft 493 kts 201°
2026-04-21 21:07 44.87753 5.07368 30974 ft 493 kts 201°
2026-04-21 21:07 44.81134 5.04919 30955 ft 494 kts 201°
2026-04-21 21:08 44.74499 5.02466 30960 ft 493 kts 201°
2026-04-21 21:08 44.67880 5.00018 30962 ft 492 kts 201°
2026-04-21 21:09 44.61264 4.97569 30953 ft 491 kts 201°
2026-04-21 21:09 44.54681 4.95135 30957 ft 491 kts 201°
2026-04-21 21:10 44.48098 4.92699 30946 ft 492 kts 201°
2026-04-21 21:10 44.41451 4.90311 30944 ft 492 kts 200°
2026-04-21 21:11 44.34821 4.87941 30949 ft 491 kts 200°
2026-04-21 21:11 44.28246 4.85575 30934 ft 490 kts 200°
2026-04-21 21:12 44.21623 4.83190 30925 ft 490 kts 200°
2026-04-21 21:12 44.15054 4.80829 30918 ft 490 kts 200°
2026-04-21 21:13 44.08474 4.78466 30918 ft 489 kts 200°
2026-04-21 21:13 44.01909 4.76104 30928 ft 490 kts 200°
2026-04-21 21:14 43.95284 4.73723 30918 ft 490 kts 200°
2026-04-21 21:14 43.88697 4.71356 30917 ft 489 kts 200°
2026-04-21 21:15 43.82137 4.68998 30906 ft 488 kts 200°
2026-04-21 21:15 43.75576 4.66639 30893 ft 488 kts 200°
2026-04-21 21:16 43.69044 4.64289 30892 ft 489 kts 200°
2026-04-21 21:16 43.62432 4.61958 30899 ft 489 kts 199°
2026-04-21 21:17 43.55869 4.59680 30897 ft 489 kts 199°
2026-04-21 21:17 43.49273 4.57375 30895 ft 489 kts 200°
2026-04-21 21:18 43.42730 4.55084 30893 ft 489 kts 200°
2026-04-21 21:18 43.36130 4.52776 30890 ft 489 kts 200°
2026-04-21 21:19 43.29559 4.50479 30883 ft 489 kts 200°
2026-04-21 21:19 43.22955 4.48170 30887 ft 488 kts 200°
2026-04-21 21:20 43.16417 4.45886 30892 ft 487 kts 200°
2026-04-21 21:20 43.09864 4.43593 30891 ft 487 kts 200°
2026-04-21 21:21 43.03274 4.41288 30898 ft 488 kts 200°
2026-04-21 21:21 42.96723 4.38998 30897 ft 489 kts 199°
2026-04-21 21:22 42.90131 4.36691 30895 ft 488 kts 199°
2026-04-21 21:22 42.83582 4.34421 30898 ft 488 kts 198°
2026-04-21 21:23 42.77045 4.32206 30896 ft 488 kts 198°
2026-04-21 21:23 42.70448 4.29962 30897 ft 488 kts 198°
2026-04-21 21:24 42.63888 4.27717 30903 ft 488 kts 198°
2026-04-21 21:24 42.57303 4.25472 30908 ft 488 kts 198°
2026-04-21 21:25 42.50767 4.23238 30903 ft 487 kts 198°
2026-04-21 21:25 42.44204 4.21001 30901 ft 487 kts 198°
2026-04-21 21:26 42.37634 4.18758 30900 ft 486 kts 197°
2026-04-21 21:26 42.31067 4.16518 30904 ft 486 kts 197°
2026-04-21 21:27 42.24564 4.14301 30909 ft 486 kts 197°
2026-04-21 21:27 42.18082 4.11752 30917 ft 484 kts 204°
2026-04-21 21:28 42.12043 4.07861 30916 ft 481 kts 211°
2026-04-21 21:29 42.03260 4.01343 30904 ft 479 kts 211°
2026-04-21 21:29 41.97099 3.97970 30909 ft 486 kts 194°
2026-04-21 21:30 41.90389 3.96800 30908 ft 489 kts 189°
2026-04-21 21:30 41.83658 3.95601 30897 ft 488 kts 191°
2026-04-21 21:31 41.76960 3.94231 30905 ft 487 kts 191°
2026-04-21 21:31 41.70290 3.92812 30901 ft 486 kts 192°
2026-04-21 21:32 41.63604 3.91383 30911 ft 486 kts 192°
2026-04-21 21:32 41.56942 3.89960 30916 ft 486 kts 192°
2026-04-21 21:33 41.50262 3.88539 30913 ft 487 kts 192°
2026-04-21 21:33 41.43589 3.87116 30907 ft 487 kts 192°
2026-04-21 21:34 41.36916 3.85695 30909 ft 487 kts 192°
2026-04-21 21:34 41.30246 3.84271 30908 ft 486 kts 192°
2026-04-21 21:35 41.23574 3.82848 30914 ft 486 kts 192°
2026-04-21 21:35 41.16895 3.81424 30924 ft 486 kts 192°
2026-04-21 21:36 41.10220 3.80020 30924 ft 486 kts 192°
2026-04-21 21:36 41.03560 3.78647 30918 ft 486 kts 192°
2026-04-21 21:37 40.96921 3.77266 30906 ft 486 kts 192°
2026-04-21 21:37 40.90254 3.75877 30906 ft 485 kts 192°
2026-04-21 21:38 40.83584 3.74492 30907 ft 485 kts 192°
2026-04-21 21:38 40.76915 3.73105 30910 ft 486 kts 192°
2026-04-21 21:39 40.70225 3.71715 30903 ft 485 kts 192°
2026-04-21 21:39 40.63580 3.70332 30905 ft 485 kts 192°
2026-04-21 21:40 40.56936 3.68954 30911 ft 484 kts 192°
2026-04-21 21:40 40.50261 3.67567 30916 ft 484 kts 192°
2026-04-21 21:41 40.43630 3.66187 30909 ft 484 kts 192°
2026-04-21 21:41 40.36994 3.64809 30900 ft 484 kts 192°
2026-04-21 21:42 40.30330 3.63429 30914 ft 485 kts 192°
2026-04-21 21:42 40.23707 3.62095 30910 ft 485 kts 192°
2026-04-21 21:43 40.17073 3.60753 30903 ft 484 kts 192°
2026-04-21 21:43 40.10397 3.59397 30905 ft 484 kts 192°
2026-04-21 21:44 40.03757 3.58047 30910 ft 484 kts 192°
2026-04-21 21:44 39.97110 3.56702 30917 ft 483 kts 192°
2026-04-21 21:45 39.90506 3.55360 30919 ft 484 kts 192°
2026-04-21 21:45 39.83828 3.54008 30921 ft 483 kts 192°
2026-04-21 21:46 39.77224 3.52669 30917 ft 483 kts 192°
2026-04-21 21:46 39.70598 3.51324 30920 ft 482 kts 192°
2026-04-21 21:47 39.63984 3.49983 30917 ft 482 kts 192°
2026-04-21 21:47 39.57345 3.48638 30919 ft 482 kts 193°
2026-04-21 21:48 39.50769 3.47302 30917 ft 481 kts 193°
2026-04-21 21:48 39.44155 3.45991 30919 ft 481 kts 192°
2026-04-21 21:49 39.37515 3.44682 30919 ft 481 kts 192°
2026-04-21 21:49 39.30940 3.43380 30920 ft 481 kts 193°
2026-04-21 21:50 39.24320 3.42068 30921 ft 480 kts 193°
2026-04-21 21:50 39.17741 3.40766 30924 ft 479 kts 193°
2026-04-21 21:51 39.11152 3.39461 30924 ft 478 kts 193°
2026-04-21 21:51 39.04592 3.38160 30924 ft 479 kts 193°
2026-04-21 21:52 38.98003 3.36857 30926 ft 479 kts 193°
2026-04-21 21:52 38.91409 3.35552 30921 ft 479 kts 193°
2026-04-21 21:53 38.84838 3.34253 30924 ft 479 kts 192°
2026-04-21 21:53 38.78255 3.32948 30918 ft 479 kts 192°
2026-04-21 21:54 38.71676 3.31644 30912 ft 479 kts 192°
2026-04-21 21:54 38.65097 3.30348 30911 ft 479 kts 192°
2026-04-21 21:55 38.58530 3.29080 30904 ft 479 kts 192°
2026-04-21 21:55 38.51916 3.27797 30905 ft 479 kts 192°
2026-04-21 21:56 38.45341 3.26517 30901 ft 479 kts 192°
2026-04-21 21:56 38.38756 3.25237 30900 ft 479 kts 192°
2026-04-21 21:57 38.32179 3.23960 30891 ft 479 kts 192°
2026-04-21 21:57 38.25585 3.22678 30891 ft 479 kts 192°
2026-04-21 21:58 38.19028 3.21404 30889 ft 479 kts 192°
2026-04-21 21:58 38.12344 3.20770 30895 ft 487 kts 181°
2026-04-21 21:59 38.05595 3.22153 30909 ft 494 kts 170°
2026-04-21 21:59 37.98926 3.24125 30901 ft 493 kts 171°
2026-04-21 22:00 37.92264 3.26008 30902 ft 492 kts 171°
2026-04-21 22:00 37.85554 3.27878 30898 ft 492 kts 171°
2026-04-21 22:01 37.78881 3.29731 30893 ft 492 kts 171°
2026-04-21 22:01 37.72198 3.31585 30895 ft 492 kts 171°
2026-04-21 22:02 37.65516 3.33440 30895 ft 493 kts 171°
2026-04-21 22:02 37.58833 3.35295 30894 ft 493 kts 171°
2026-04-21 22:03 37.52161 3.37147 30891 ft 492 kts 171°
2026-04-21 22:03 37.45486 3.38998 30884 ft 492 kts 171°
2026-04-21 22:04 37.38794 3.40855 30877 ft 492 kts 171°
2026-04-21 22:04 37.32098 3.42713 30873 ft 492 kts 171°
2026-04-21 22:05 37.25427 3.44565 30866 ft 493 kts 171°
2026-04-21 22:05 37.18712 3.46393 30866 ft 493 kts 171°
2026-04-21 22:06 37.12022 3.48214 30861 ft 493 kts 171°
2026-04-21 22:06 37.05348 3.50038 30866 ft 492 kts 171°
2026-04-21 22:07 36.98676 3.51859 30871 ft 491 kts 170°
2026-04-21 22:07 36.91985 3.53684 30869 ft 492 kts 170°
2026-04-21 22:08 36.85342 3.55498 30873 ft 492 kts 170°
2026-04-21 22:08 36.78659 3.57532 30873 ft 494 kts 166°
2026-04-21 22:09 36.72135 3.60295 30876 ft 496 kts 162°
2026-04-21 22:09 36.65693 3.63192 30896 ft 495 kts 162°
2026-04-21 22:10 36.59181 3.66097 30904 ft 495 kts 163°
2026-04-21 22:10 36.52734 3.68958 30933 ft 495 kts 163°
2026-04-21 22:11 36.46228 3.71842 30951 ft 494 kts 163°
2026-04-21 22:11 36.39796 3.74695 30975 ft 494 kts 163°
2026-04-21 22:12 36.33344 3.77538 30998 ft 493 kts 164°
2026-04-21 22:12 36.26839 3.80328 31008 ft 492 kts 164°
2026-04-21 22:13 36.20383 3.83119 31022 ft 492 kts 164°
2026-04-21 22:13 36.13961 3.85899 31029 ft 492 kts 163°
2026-04-21 22:14 36.07467 3.88707 31049 ft 493 kts 163°
2026-04-21 22:14 36.01047 3.91485 31065 ft 492 kts 164°
2026-04-21 22:15 35.94560 3.94290 31064 ft 492 kts 163°
2026-04-21 22:15 35.88114 3.97077 31050 ft 491 kts 163°
2026-04-21 22:16 35.81663 3.99868 31042 ft 491 kts 163°
2026-04-21 22:16 35.75224 4.02652 31023 ft 492 kts 163°
2026-04-21 22:17 35.68785 4.05440 31017 ft 492 kts 163°
2026-04-21 22:17 35.62323 4.08236 31014 ft 492 kts 163°
2026-04-21 22:18 35.55893 4.11019 31011 ft 491 kts 163°
2026-04-21 22:18 35.49470 4.13797 31012 ft 491 kts 163°
2026-04-21 22:19 35.43016 4.16591 31009 ft 491 kts 163°
2026-04-21 22:19 35.36558 4.19337 30994 ft 491 kts 167°
2026-04-21 22:20 35.29876 4.20443 31005 ft 485 kts 184°
2026-04-21 22:20 35.23226 4.19503 31021 ft 482 kts 191°
2026-04-21 22:21 35.16572 4.18399 31050 ft 481 kts 190°
2026-04-21 22:21 35.13242 4.17883 31376 ft 476 kts 190°
2026-04-21 22:21 35.09992 4.17392 32051 ft 471 kts 190°
2026-04-21 22:22 35.03458 4.16412 32115 ft 479 kts 189°
2026-04-21 22:22 34.96859 4.15433 32124 ft 478 kts 189°
2026-04-21 22:23 34.90269 4.14455 32116 ft 475 kts 189°
2026-04-21 22:23 34.83738 4.13485 32100 ft 476 kts 189°
2026-04-21 22:24 34.77130 4.12504 32089 ft 476 kts 189°
2026-04-21 22:24 34.70578 4.11531 32077 ft 475 kts 189°
2026-04-21 22:25 34.64036 4.10560 32083 ft 474 kts 189°
2026-04-21 22:25 34.57502 4.09591 32085 ft 474 kts 189°
2026-04-21 22:26 34.50926 4.08614 32079 ft 474 kts 189°
2026-04-21 22:26 34.44405 4.07644 32068 ft 474 kts 189°
2026-04-21 22:27 34.37868 4.06690 32054 ft 475 kts 189°
2026-04-21 22:27 34.31327 4.05734 32044 ft 474 kts 189°
2026-04-21 22:28 34.24773 4.04774 32023 ft 474 kts 189°
2026-04-21 22:28 34.18233 4.03816 32000 ft 474 kts 189°
2026-04-21 22:29 34.11661 4.02855 32000 ft 474 kts 189°
2026-04-21 22:29 34.05127 4.01898 32008 ft 474 kts 189°
2026-04-21 22:30 33.98612 4.00945 32013 ft 473 kts 189°
2026-04-21 22:30 33.92042 3.99981 32009 ft 473 kts 189°
2026-04-21 22:31 33.85538 3.99026 32025 ft 473 kts 189°
2026-04-21 22:31 33.79016 3.98072 32023 ft 473 kts 189°
2026-04-21 22:32 33.72479 3.97113 32025 ft 472 kts 189°
2026-04-21 22:32 33.65941 3.96155 32028 ft 472 kts 189°
2026-04-21 22:33 33.59434 3.95203 32025 ft 472 kts 189°
2026-04-21 22:33 33.52924 3.94249 32021 ft 472 kts 189°
2026-04-21 22:34 33.46396 3.93291 32022 ft 472 kts 189°
2026-04-21 22:34 33.39895 3.92339 32019 ft 472 kts 189°
2026-04-21 22:35 33.33382 3.91384 32018 ft 471 kts 190°
2026-04-21 22:35 33.26881 3.90430 32013 ft 471 kts 190°
2026-04-21 22:36 33.17122 3.89020 32018 ft 471 kts 189°
2026-04-21 22:36 33.10601 3.88078 32008 ft 471 kts 189°
2026-04-21 22:37 33.04110 3.87137 32307 ft 472 kts 190°
2026-04-21 22:37 33.00867 3.86668 32816 ft 469 kts 190°
2026-04-21 22:37 32.97606 3.86199 33198 ft 468 kts 190°
2026-04-21 22:38 32.94394 3.85735 33580 ft 466 kts 190°
2026-04-21 22:38 32.91178 3.85272 33946 ft 465 kts 190°
2026-04-21 22:38 32.84763 3.84345 33990 ft 464 kts 190°
2026-04-21 22:39 32.78395 3.83426 34006 ft 462 kts 190°
2026-04-21 22:39 32.71975 3.82498 34003 ft 462 kts 190°
2026-04-21 22:40 32.65630 3.81582 33999 ft 463 kts 190°
2026-04-21 22:40 32.59214 3.80658 33995 ft 464 kts 190°
2026-04-21 22:41 32.52780 3.79730 33993 ft 465 kts 190°
2026-04-21 22:41 32.46357 3.78803 33999 ft 464 kts 190°
2026-04-21 22:42 32.39952 3.77987 33995 ft 465 kts 187°
2026-04-21 22:42 32.33452 3.77749 33996 ft 468 kts 183°
2026-04-21 22:43 32.26977 3.77778 33988 ft 467 kts 183°
2026-04-21 22:43 32.20450 3.77792 33981 ft 467 kts 184°
2026-04-21 22:44 32.13965 3.77795 33984 ft 468 kts 184°
2026-04-21 22:44 32.07444 3.77796 33984 ft 468 kts 184°
2026-04-21 22:45 32.00916 3.77796 33985 ft 469 kts 184°
2026-04-21 22:45 31.94410 3.77798 33979 ft 467 kts 184°
2026-04-21 22:46 31.87909 3.77799 33979 ft 467 kts 184°
2026-04-21 22:46 31.81418 3.77800 33982 ft 467 kts 184°
2026-04-21 22:47 31.74918 3.77804 33980 ft 468 kts 184°
2026-04-21 22:47 31.68398 3.77804 33977 ft 468 kts 184°
2026-04-21 22:48 31.61900 3.77807 33969 ft 468 kts 184°
2026-04-21 22:48 31.55374 3.77808 33962 ft 468 kts 184°
2026-04-21 22:49 31.48906 3.77810 33966 ft 467 kts 184°
2026-04-21 22:49 31.42389 3.77811 33958 ft 467 kts 184°
2026-04-21 22:50 31.35901 3.77812 33964 ft 467 kts 184°
2026-04-21 22:50 31.29402 3.77814 33956 ft 467 kts 184°
2026-04-21 22:51 31.22880 3.77815 33953 ft 467 kts 184°
2026-04-21 22:51 31.16390 3.77820 33941 ft 466 kts 184°
2026-04-21 22:52 31.09933 3.77820 33946 ft 467 kts 184°
2026-04-21 22:52 31.03400 3.77821 33945 ft 467 kts 184°
2026-04-21 22:53 30.96894 3.77824 33942 ft 467 kts 184°
2026-04-21 22:53 30.90432 3.77824 33933 ft 467 kts 184°
2026-04-21 22:54 30.83906 3.77825 33936 ft 466 kts 184°
2026-04-21 22:54 30.77437 3.77826 33936 ft 466 kts 184°
2026-04-21 22:55 30.70946 3.77829 33934 ft 465 kts 184°
2026-04-21 22:55 30.64472 3.77831 33934 ft 465 kts 183°
2026-04-21 22:56 30.58028 3.77833 33933 ft 465 kts 183°
2026-04-21 22:56 30.51521 3.77834 33925 ft 466 kts 183°
2026-04-21 22:57 30.45059 3.77835 33925 ft 467 kts 183°
2026-04-21 22:57 30.38558 3.77838 33926 ft 466 kts 183°
2026-04-21 22:58 30.32052 3.77838 33918 ft 466 kts 183°
2026-04-21 22:58 30.25609 3.77840 33920 ft 466 kts 183°
2026-04-21 22:59 30.19145 3.77842 33917 ft 465 kts 183°
2026-04-21 22:59 30.12650 3.77843 33914 ft 465 kts 183°
2026-04-21 23:00 30.06203 3.77807 33914 ft 464 kts 185°
2026-04-21 23:00 29.99777 3.77210 33918 ft 462 kts 191°
2026-04-21 23:01 29.93420 3.76093 33919 ft 463 kts 191°
2026-04-21 23:01 29.87048 3.74963 33920 ft 463 kts 191°
2026-04-21 23:02 29.80681 3.73845 33913 ft 463 kts 191°
2026-04-21 23:02 29.74306 3.72730 33913 ft 463 kts 191°
2026-04-21 23:03 29.67927 3.71616 33914 ft 463 kts 191°
2026-04-21 23:03 29.61564 3.70505 33908 ft 462 kts 191°
2026-04-21 23:04 29.55228 3.69398 33913 ft 462 kts 191°
2026-04-21 23:04 29.48849 3.68285 33917 ft 462 kts 191°
2026-04-21 23:05 29.42521 3.67178 33911 ft 462 kts 191°
2026-04-21 23:05 29.36127 3.66061 33912 ft 462 kts 191°
2026-04-21 23:06 29.29789 3.64956 33917 ft 463 kts 192°
2026-04-21 23:06 29.23427 3.63843 33920 ft 464 kts 192°
2026-04-21 23:07 29.17057 3.62731 33922 ft 464 kts 192°
2026-04-21 23:07 29.10645 3.61620 33924 ft 463 kts 191°
2026-04-21 23:08 29.04320 3.60533 33925 ft 462 kts 191°
2026-04-21 23:08 28.97934 3.59434 33924 ft 462 kts 191°
2026-04-21 23:09 28.91598 3.58344 33919 ft 463 kts 192°
2026-04-21 23:09 28.85204 3.57241 33917 ft 464 kts 192°
2026-04-21 23:10 28.78800 3.56138 33919 ft 464 kts 192°
2026-04-21 23:10 28.72422 3.55040 33920 ft 464 kts 192°
2026-04-21 23:11 28.66045 3.53942 33927 ft 463 kts 192°
2026-04-21 23:11 28.59677 3.52845 33923 ft 462 kts 192°
2026-04-21 23:12 28.53294 3.51773 33921 ft 463 kts 191°
2026-04-21 23:12 28.46844 3.51239 33922 ft 467 kts 185°
2026-04-21 23:13 28.40341 3.51287 33925 ft 468 kts 183°
2026-04-21 23:13 28.33845 3.51364 33926 ft 469 kts 184°
2026-04-21 23:14 28.27304 3.51425 33932 ft 469 kts 184°
2026-04-21 23:14 28.20793 3.51486 33931 ft 468 kts 184°
2026-04-21 23:15 28.14263 3.51542 33923 ft 468 kts 184°
2026-04-21 23:15 28.07741 3.51598 33919 ft 468 kts 184°
2026-04-21 23:16 28.01228 3.51653 33927 ft 469 kts 184°
2026-04-21 23:16 27.94686 3.51714 33922 ft 469 kts 184°
2026-04-21 23:17 27.88155 3.51772 33914 ft 469 kts 184°
2026-04-21 23:17 27.81615 3.51830 33912 ft 469 kts 184°
2026-04-21 23:18 27.75105 3.51886 33911 ft 468 kts 184°
2026-04-21 23:18 27.68568 3.51946 33901 ft 468 kts 184°
2026-04-21 23:19 27.62015 3.52002 33893 ft 469 kts 184°
2026-04-21 23:19 27.55524 3.52062 33892 ft 468 kts 184°
2026-04-21 23:20 27.48974 3.52117 33886 ft 468 kts 184°
2026-04-21 23:20 27.42480 3.52176 33885 ft 468 kts 184°
2026-04-21 23:21 27.35939 3.52231 33883 ft 469 kts 184°
2026-04-21 23:21 27.29397 3.52290 33885 ft 469 kts 184°
2026-04-21 23:22 27.22899 3.52346 33888 ft 469 kts 184°
2026-04-21 23:22 27.16333 3.52402 33891 ft 469 kts 184°
2026-04-21 23:23 27.09832 3.52461 33894 ft 468 kts 184°
2026-04-21 23:23 27.03306 3.52517 33894 ft 468 kts 184°
2026-04-21 23:24 26.96805 3.52573 33900 ft 468 kts 184°
2026-04-21 23:24 26.90288 3.52630 33889 ft 468 kts 184°
2026-04-21 23:25 26.83730 3.52690 33888 ft 469 kts 184°
2026-04-21 23:25 26.77202 3.52746 33883 ft 469 kts 184°
2026-04-21 23:26 26.70720 3.52800 33881 ft 469 kts 184°
2026-04-21 23:26 26.64162 3.52857 33883 ft 469 kts 184°
2026-04-21 23:27 26.57627 3.52915 33892 ft 469 kts 184°
2026-04-21 23:27 26.51107 3.52970 33906 ft 468 kts 184°
2026-04-21 23:28 26.44569 3.53028 33897 ft 468 kts 184°
2026-04-21 23:28 26.38055 3.53081 33889 ft 469 kts 184°
2026-04-21 23:29 26.31522 3.53140 33875 ft 469 kts 184°
2026-04-21 23:29 26.25001 3.53195 33881 ft 470 kts 184°
2026-04-21 23:30 26.18419 3.53253 33888 ft 470 kts 184°
2026-04-21 23:30 26.11864 3.53309 33901 ft 470 kts 184°
2026-04-21 23:31 26.05356 3.53364 33899 ft 470 kts 184°
2026-04-21 23:31 25.98801 3.53422 33916 ft 470 kts 184°
2026-04-21 23:32 25.92219 3.53477 33922 ft 470 kts 184°
2026-04-21 23:32 25.85708 3.53534 33934 ft 469 kts 185°
2026-04-21 23:33 25.79155 3.53588 33959 ft 469 kts 185°
2026-04-21 23:33 25.72634 3.53644 33967 ft 469 kts 185°
2026-04-21 23:34 25.66126 3.53698 33956 ft 469 kts 185°
2026-04-21 23:34 25.59566 3.53754 33949 ft 469 kts 185°
2026-04-21 23:35 25.53058 3.53812 33936 ft 469 kts 185°
2026-04-21 23:35 25.46492 3.53865 33930 ft 469 kts 185°
2026-04-21 23:36 25.39980 3.53922 33938 ft 468 kts 185°
2026-04-21 23:36 25.33425 3.53975 33955 ft 468 kts 185°
2026-04-21 23:37 25.26891 3.54032 33957 ft 469 kts 185°
2026-04-21 23:37 25.20395 3.54089 33956 ft 468 kts 186°
2026-04-21 23:38 25.13856 3.54146 33965 ft 468 kts 186°
2026-04-21 23:38 25.07351 3.54196 33969 ft 468 kts 186°
2026-04-21 23:39 25.00851 3.54250 33963 ft 468 kts 186°
2026-04-21 23:39 24.94340 3.54307 33963 ft 467 kts 186°
2026-04-21 23:40 24.87797 3.54362 33981 ft 467 kts 186°
2026-04-21 23:40 24.81352 3.54415 33976 ft 466 kts 186°
2026-04-21 23:41 24.74815 3.54471 33991 ft 467 kts 186°
2026-04-21 23:41 24.68353 3.54524 34005 ft 466 kts 186°
2026-04-21 23:42 24.61859 3.54581 33998 ft 466 kts 186°
2026-04-21 23:42 24.55340 3.54634 33985 ft 467 kts 186°
2026-04-21 23:43 24.48815 3.54689 33997 ft 467 kts 186°
2026-04-21 23:43 24.42344 3.54742 33996 ft 466 kts 186°
2026-04-21 23:44 24.35871 3.54797 34002 ft 465 kts 186°
2026-04-21 23:44 24.29390 3.54852 33996 ft 465 kts 186°
2026-04-21 23:45 24.19693 3.54931 33984 ft 465 kts 187°
2026-04-21 23:46 24.13199 3.54985 33986 ft 465 kts 187°
2026-04-21 23:46 24.06723 3.55038 33964 ft 465 kts 187°
2026-04-21 23:47 24.00255 3.55094 33974 ft 465 kts 187°
2026-04-21 23:47 23.93771 3.55145 33976 ft 465 kts 187°
2026-04-21 23:48 23.87280 3.55200 33970 ft 465 kts 187°
2026-04-21 23:48 23.80802 3.55253 33950 ft 466 kts 187°
2026-04-21 23:49 23.74344 3.55307 33951 ft 467 kts 187°
2026-04-21 23:49 23.67839 3.55362 33967 ft 466 kts 187°
2026-04-21 23:50 23.61338 3.55413 33967 ft 466 kts 187°
2026-04-21 23:50 23.54847 3.55469 33968 ft 467 kts 187°
2026-04-21 23:51 23.48348 3.55521 33946 ft 466 kts 187°
2026-04-21 23:51 23.41878 3.55577 33964 ft 465 kts 187°
2026-04-21 23:52 23.35404 3.55626 33965 ft 466 kts 187°
2026-04-21 23:52 23.28871 3.55679 33953 ft 469 kts 188°
2026-04-21 23:53 23.22322 3.55733 33959 ft 469 kts 187°
2026-04-21 23:53 23.15827 3.55790 33959 ft 469 kts 188°
2026-04-21 23:54 23.09283 3.55842 33943 ft 470 kts 188°
2026-04-21 23:54 23.02727 3.55896 33954 ft 468 kts 188°
2026-04-21 23:55 22.96250 3.55948 33953 ft 467 kts 188°
2026-04-21 23:55 22.89712 3.56001 33937 ft 468 kts 188°
2026-04-21 23:56 22.83197 3.56054 33938 ft 469 kts 188°
2026-04-21 23:56 22.76668 3.56109 33945 ft 471 kts 188°
2026-04-21 23:57 22.70096 3.56162 33958 ft 470 kts 188°
2026-04-21 23:57 22.63542 3.56215 33951 ft 469 kts 189°
2026-04-21 23:58 22.57032 3.56268 33950 ft 468 kts 189°
2026-04-21 23:58 22.50485 3.56322 33962 ft 467 kts 189°
2026-04-21 23:59 22.43994 3.56373 33960 ft 468 kts 189°
2026-04-21 23:59 22.37459 3.56422 33951 ft 470 kts 189°
2026-04-22 00:00 22.30898 3.56478 33962 ft 471 kts 190°
2026-04-22 00:00 22.24355 3.56534 33957 ft 470 kts 190°
2026-04-22 00:01 22.17837 3.56583 33969 ft 469 kts 190°
2026-04-22 00:01 22.11316 3.56638 33975 ft 467 kts 190°
2026-04-22 00:02 22.04835 3.56689 33975 ft 467 kts 191°
2026-04-22 00:02 21.98284 3.56739 33955 ft 468 kts 191°
2026-04-22 00:03 21.91751 3.56792 33976 ft 468 kts 190°
2026-04-22 00:03 21.85225 3.56847 33972 ft 469 kts 191°
2026-04-22 00:04 21.78705 3.56903 33989 ft 469 kts 191°
2026-04-22 00:04 21.72202 3.56951 33980 ft 468 kts 191°
2026-04-22 00:05 21.65683 3.56896 33987 ft 470 kts 192°
2026-04-22 00:05 21.59109 3.56829 33983 ft 470 kts 192°
2026-04-22 00:06 21.52560 3.56779 33973 ft 468 kts 192°
2026-04-22 00:06 21.46051 3.56723 33993 ft 469 kts 192°
2026-04-22 00:07 21.39536 3.56666 33980 ft 471 kts 192°
2026-04-22 00:07 21.32948 3.56617 33979 ft 471 kts 192°
2026-04-22 00:08 21.26404 3.56566 33992 ft 471 kts 192°
2026-04-22 00:08 21.19843 3.56512 33985 ft 471 kts 192°
2026-04-22 00:09 21.13262 3.56455 33985 ft 473 kts 192°
2026-04-22 00:09 21.06692 3.56402 34000 ft 471 kts 192°
2026-04-22 00:10 21.00142 3.56354 33999 ft 470 kts 192°
2026-04-22 00:10 20.93582 3.56296 33992 ft 472 kts 192°
2026-04-22 00:11 20.86942 3.56240 34003 ft 476 kts 192°
2026-04-22 00:11 20.80353 3.56193 33974 ft 476 kts 192°
2026-04-22 00:12 20.73718 3.56137 33993 ft 477 kts 192°
2026-04-22 00:12 20.67073 3.56084 33981 ft 476 kts 192°
2026-04-22 00:13 20.60409 3.56030 34006 ft 479 kts 192°
2026-04-22 00:13 20.53714 3.55975 33999 ft 478 kts 192°
2026-04-22 00:14 20.47060 3.55922 34014 ft 478 kts 192°
2026-04-22 00:14 20.40445 3.55869 33999 ft 478 kts 192°
2026-04-22 00:15 20.33765 3.55815 33998 ft 479 kts 192°
2026-04-22 00:15 20.27069 3.55759 34007 ft 482 kts 192°
2026-04-22 00:16 20.20361 3.55708 34014 ft 481 kts 192°
2026-04-22 00:16 20.13645 3.55654 34017 ft 482 kts 192°
2026-04-22 00:17 20.06956 3.55599 34004 ft 482 kts 192°
2026-04-22 00:17 20.00189 3.55542 34003 ft 484 kts 192°
2026-04-22 00:18 19.93447 3.55492 33983 ft 485 kts 192°
2026-04-22 00:18 19.86681 3.55438 33969 ft 486 kts 192°
2026-04-22 00:19 19.79913 3.55386 33960 ft 484 kts 192°
2026-04-22 00:19 19.73211 3.55331 33972 ft 485 kts 192°
2026-04-22 00:20 19.66400 3.55274 33954 ft 487 kts 192°
2026-04-22 00:20 19.59615 3.55221 33974 ft 487 kts 192°
2026-04-22 00:21 19.52842 3.55167 33960 ft 488 kts 192°
2026-04-22 00:21 19.46028 3.55115 33959 ft 487 kts 192°
2026-04-22 00:22 19.39229 3.55060 33963 ft 487 kts 192°
2026-04-22 00:22 19.32462 3.55006 33962 ft 486 kts 192°
2026-04-22 00:23 19.25694 3.54949 33963 ft 489 kts 192°
2026-04-22 00:23 19.18842 3.54898 33946 ft 489 kts 192°
2026-04-22 00:24 19.12032 3.54845 33944 ft 488 kts 192°
2026-04-22 00:24 19.05228 3.54786 33927 ft 490 kts 192°
2026-04-22 00:25 18.98373 3.54730 33914 ft 491 kts 192°
2026-04-22 00:25 18.91540 3.54590 33931 ft 493 kts 192°
2026-04-22 00:26 18.84644 3.54450 33940 ft 495 kts 192°
2026-04-22 00:26 18.77793 3.54325 33920 ft 493 kts 192°
2026-04-22 00:27 18.70887 3.54193 33928 ft 494 kts 192°
2026-04-22 00:27 18.64014 3.54062 33919 ft 494 kts 192°
2026-04-22 00:28 18.57157 3.53935 33908 ft 494 kts 192°
2026-04-22 00:28 18.50257 3.53798 33922 ft 495 kts 192°
2026-04-22 00:29 18.43321 3.53670 33908 ft 497 kts 192°
2026-04-22 00:29 18.36431 3.53538 33936 ft 498 kts 192°
2026-04-22 00:30 18.29459 3.53409 33922 ft 498 kts 192°
2026-04-22 00:30 18.22537 3.53275 33922 ft 497 kts 192°
2026-04-22 00:31 18.15616 3.53146 33926 ft 497 kts 192°
2026-04-22 00:31 18.08668 3.53016 33936 ft 497 kts 192°
2026-04-22 00:32 18.01772 3.52885 33921 ft 497 kts 192°
2026-04-22 00:32 17.94846 3.52755 33926 ft 497 kts 192°
2026-04-22 00:33 17.87927 3.52626 33941 ft 498 kts 192°
2026-04-22 00:33 17.80985 3.52494 33938 ft 499 kts 192°
2026-04-22 00:34 17.74028 3.52365 33924 ft 498 kts 192°
2026-04-22 00:34 17.67082 3.52232 33929 ft 498 kts 192°
2026-04-22 00:35 17.60137 3.52104 33921 ft 497 kts 192°
2026-04-22 00:35 17.53229 3.51974 33923 ft 497 kts 191°
2026-04-22 00:36 17.46282 3.51842 33916 ft 498 kts 191°
2026-04-22 00:36 17.39322 3.51711 33914 ft 499 kts 191°
2026-04-22 00:37 17.32338 3.51583 33913 ft 499 kts 191°
2026-04-22 00:37 17.25425 3.51453 33911 ft 498 kts 191°
2026-04-22 00:38 17.18466 3.51324 33915 ft 498 kts 191°
2026-04-22 00:38 17.11560 3.51199 33909 ft 498 kts 191°
2026-04-22 00:39 17.04604 3.51073 33920 ft 497 kts 191°
2026-04-22 00:39 16.97688 3.50945 33918 ft 497 kts 191°
2026-04-22 00:40 16.90771 3.50816 33909 ft 498 kts 191°
2026-04-22 00:40 16.83819 3.50687 33908 ft 499 kts 190°
2026-04-22 00:41 16.76841 3.50563 33904 ft 498 kts 191°
2026-04-22 00:41 16.69893 3.50433 33898 ft 500 kts 191°
2026-04-22 00:42 16.62929 3.50307 33890 ft 499 kts 191°
2026-04-22 00:42 16.55976 3.50177 33887 ft 499 kts 190°
2026-04-22 00:43 16.49029 3.50050 33882 ft 500 kts 190°
2026-04-22 00:43 16.42047 3.49923 33881 ft 501 kts 190°
2026-04-22 00:44 16.35082 3.49796 33891 ft 501 kts 190°
2026-04-22 00:44 16.28102 3.49667 33893 ft 500 kts 190°
2026-04-22 00:45 16.21154 3.49541 33890 ft 498 kts 190°
2026-04-22 00:45 16.14195 3.49411 33875 ft 500 kts 190°
2026-04-22 00:46 16.07242 3.49284 33881 ft 500 kts 190°
2026-04-22 00:46 16.00237 3.49158 33868 ft 501 kts 190°
2026-04-22 00:47 15.93288 3.49027 33859 ft 500 kts 189°
2026-04-22 00:47 15.86313 3.48896 33862 ft 498 kts 190°
2026-04-22 00:48 15.79372 3.48771 33863 ft 498 kts 189°
2026-04-22 00:48 15.72440 3.48649 33860 ft 499 kts 189°
2026-04-22 00:49 15.65478 3.48517 33857 ft 498 kts 189°
2026-04-22 00:49 15.58521 3.48391 33858 ft 499 kts 189°
2026-04-22 00:50 15.51591 3.48261 33854 ft 498 kts 189°
2026-04-22 00:50 15.44626 3.48133 33861 ft 498 kts 189°
2026-04-22 00:51 15.37704 3.48010 33849 ft 498 kts 189°
2026-04-22 00:51 15.30730 3.47882 33849 ft 497 kts 189°
2026-04-22 00:52 15.23808 3.47753 33836 ft 498 kts 189°
2026-04-22 00:52 15.16875 3.47632 33841 ft 498 kts 189°
2026-04-22 00:53 15.09908 3.47499 33836 ft 497 kts 189°
2026-04-22 00:53 15.02994 3.47377 33849 ft 496 kts 189°
2026-04-22 00:54 14.96087 3.47249 33852 ft 496 kts 189°
2026-04-22 00:54 14.89161 3.47124 33824 ft 497 kts 189°
2026-04-22 00:55 14.82248 3.46994 33826 ft 497 kts 189°
2026-04-22 00:55 14.71862 3.46808 33839 ft 496 kts 189°
2026-04-22 00:56 14.64951 3.46684 33827 ft 498 kts 189°
2026-04-22 00:56 14.58003 3.46555 33817 ft 498 kts 188°
2026-04-22 00:57 14.51082 3.46431 33824 ft 498 kts 188°
2026-04-22 00:57 14.44107 3.46306 33827 ft 499 kts 188°
2026-04-22 00:58 14.37186 3.46176 33839 ft 499 kts 188°
2026-04-22 00:58 14.30209 3.46053 33837 ft 498 kts 188°
2026-04-22 00:59 14.23262 3.45926 33834 ft 499 kts 188°
2026-04-22 00:59 14.16350 3.45801 33842 ft 499 kts 188°
2026-04-22 01:00 14.09359 3.45677 33835 ft 499 kts 188°
2026-04-22 01:00 14.02399 3.45551 33835 ft 498 kts 188°
2026-04-22 01:01 13.95484 3.45422 33830 ft 499 kts 188°
2026-04-22 01:01 13.88513 3.45298 33836 ft 500 kts 188°
2026-04-22 01:02 13.81518 3.45176 33838 ft 499 kts 188°
2026-04-22 01:02 13.74561 3.45047 33824 ft 499 kts 188°
2026-04-22 01:03 13.67621 3.44921 33831 ft 498 kts 188°
2026-04-22 01:03 13.60672 3.44796 33839 ft 499 kts 187°
2026-04-22 01:04 13.53708 3.44674 33844 ft 499 kts 187°
2026-04-22 01:04 13.46728 3.44536 33832 ft 499 kts 187°
2026-04-22 01:05 13.39804 3.44401 33841 ft 498 kts 187°
2026-04-22 01:05 13.32874 3.44270 33836 ft 497 kts 187°
2026-04-22 01:06 13.25925 3.44134 33822 ft 498 kts 187°
2026-04-22 01:06 13.18926 3.44224 33813 ft 502 kts 184°
2026-04-22 01:07 13.11936 3.44399 33824 ft 500 kts 184°
2026-04-22 01:07 13.05020 3.44543 33823 ft 498 kts 185°
2026-04-22 01:08 12.98047 3.44675 33823 ft 500 kts 184°
2026-04-22 01:08 12.91061 3.44808 33818 ft 499 kts 184°
2026-04-22 01:09 12.84163 3.44784 33825 ft 497 kts 186°
2026-04-22 01:09 12.77181 3.44674 33819 ft 498 kts 186°
2026-04-22 01:10 12.70240 3.44591 33822 ft 498 kts 186°
2026-04-22 01:10 12.63308 3.44524 33819 ft 498 kts 186°
2026-04-22 01:11 12.56343 3.44454 33818 ft 498 kts 186°
2026-04-22 01:11 12.49423 3.44385 33824 ft 498 kts 185°
2026-04-22 01:12 12.42477 3.44315 33827 ft 498 kts 186°
2026-04-22 01:12 12.35521 3.44247 33821 ft 498 kts 186°
2026-04-22 01:13 12.28607 3.44177 33808 ft 497 kts 185°
2026-04-22 01:13 12.21626 3.44107 33811 ft 498 kts 185°
2026-04-22 01:14 12.14706 3.44039 33813 ft 497 kts 185°
2026-04-22 01:14 12.07765 3.43968 33818 ft 496 kts 185°
2026-04-22 01:15 12.00842 3.43897 33815 ft 496 kts 185°
2026-04-22 01:15 11.93920 3.43830 33804 ft 496 kts 185°
2026-04-22 01:16 11.86982 3.43765 33806 ft 496 kts 185°
2026-04-22 01:16 11.80070 3.43692 33813 ft 497 kts 185°
2026-04-22 01:17 11.73142 3.43622 33812 ft 496 kts 185°
2026-04-22 01:17 11.66221 3.43557 33807 ft 496 kts 184°
2026-04-22 01:18 11.59328 3.43486 33810 ft 496 kts 185°
2026-04-22 01:18 11.52397 3.43418 33810 ft 496 kts 185°
2026-04-22 01:19 11.45501 3.43346 33811 ft 495 kts 184°
2026-04-22 01:19 11.38578 3.43282 33816 ft 495 kts 185°
2026-04-22 01:20 11.31668 3.43212 33814 ft 495 kts 184°
2026-04-22 01:20 11.24738 3.43143 33824 ft 495 kts 184°
2026-04-22 01:21 11.17872 3.43076 33817 ft 495 kts 184°
2026-04-22 01:21 11.10947 3.43008 33824 ft 495 kts 184°
2026-04-22 01:22 11.04062 3.42937 33823 ft 495 kts 184°
2026-04-22 01:22 10.97139 3.42868 33823 ft 494 kts 184°
2026-04-22 01:23 10.90267 3.42803 33830 ft 493 kts 184°
2026-04-22 01:23 10.83419 3.42733 33821 ft 493 kts 184°
2026-04-22 01:24 10.76538 3.42668 33832 ft 493 kts 183°
2026-04-22 01:24 10.69615 3.42598 33839 ft 493 kts 184°
2026-04-22 01:25 10.62779 3.42530 33838 ft 492 kts 183°
2026-04-22 01:25 10.55902 3.42462 33830 ft 491 kts 183°
2026-04-22 01:26 10.49057 3.42394 33838 ft 491 kts 183°
2026-04-22 01:26 10.42184 3.42326 33837 ft 492 kts 183°
2026-04-22 01:27 10.35324 3.42259 33844 ft 491 kts 183°
2026-04-22 01:27 10.28466 3.42192 33850 ft 490 kts 183°
2026-04-22 01:28 10.21620 3.42125 33856 ft 490 kts 183°
2026-04-22 01:28 10.14805 3.42058 33862 ft 490 kts 183°
2026-04-22 01:29 10.07990 3.41991 33857 ft 489 kts 183°
2026-04-22 01:29 10.01127 3.41924 33856 ft 489 kts 183°
2026-04-22 01:30 9.94328 3.41856 33859 ft 490 kts 183°
2026-04-22 01:30 9.87504 3.41790 33862 ft 490 kts 182°
2026-04-22 01:31 9.80634 3.41720 33853 ft 490 kts 182°
2026-04-22 01:31 9.73815 3.41655 33853 ft 489 kts 182°
2026-04-22 01:32 9.66997 3.41588 33855 ft 489 kts 182°
2026-04-22 01:32 9.60178 3.41520 33862 ft 489 kts 182°
2026-04-22 01:33 9.53325 3.41452 33869 ft 489 kts 182°
2026-04-22 01:33 9.46540 3.41386 33870 ft 489 kts 182°
2026-04-22 01:34 9.39719 3.41321 33870 ft 489 kts 182°
2026-04-22 01:34 9.32854 3.41253 33861 ft 489 kts 182°
2026-04-22 01:35 9.26051 3.41185 33864 ft 489 kts 182°
2026-04-22 01:35 9.19225 3.41120 33868 ft 489 kts 182°
2026-04-22 01:36 9.12402 3.41053 33871 ft 488 kts 182°
2026-04-22 01:36 9.05595 3.40986 33877 ft 488 kts 182°
2026-04-22 01:37 8.98787 3.40920 33880 ft 488 kts 182°
2026-04-22 01:37 8.91982 3.40853 33879 ft 489 kts 182°
2026-04-22 01:38 8.85124 3.40785 33876 ft 489 kts 182°
2026-04-22 01:38 8.78305 3.40720 33875 ft 489 kts 182°
2026-04-22 01:39 8.71483 3.40652 33876 ft 489 kts 182°
2026-04-22 01:39 8.64644 3.40585 33876 ft 489 kts 181°
2026-04-22 01:40 8.57807 3.40520 33875 ft 489 kts 181°
2026-04-22 01:40 8.51005 3.40454 33877 ft 489 kts 181°
2026-04-22 01:41 8.44166 3.40384 33875 ft 490 kts 181°
2026-04-22 01:41 8.37322 3.40320 33597 ft 491 kts 181°
2026-04-22 01:42 8.33888 3.40287 32745 ft 493 kts 181°
2026-04-22 01:42 8.30448 3.40255 31962 ft 495 kts 182°
2026-04-22 01:42 8.26988 3.40222 31170 ft 500 kts 182°
2026-04-22 01:42 8.23475 3.40188 30340 ft 505 kts 182°
2026-04-22 01:43 8.19949 3.40151 29496 ft 511 kts 182°
2026-04-22 01:43 8.16366 3.40117 28613 ft 518 kts 183°
2026-04-22 01:43 8.12748 3.40077 27746 ft 525 kts 182°
2026-04-22 01:43 8.09086 3.40037 26869 ft 530 kts 182°
2026-04-22 01:44 8.05354 3.40001 25984 ft 534 kts 182°
2026-04-22 01:44 8.01633 3.39967 25223 ft 533 kts 181°
2026-04-22 01:44 7.97956 3.39935 24903 ft 525 kts 181°
2026-04-22 01:44 7.94341 3.39903 24861 ft 518 kts 181°
2026-04-22 01:45 7.90720 3.39870 24851 ft 515 kts 181°
2026-04-22 01:45 7.87120 3.39834 24847 ft 515 kts 181°
2026-04-22 01:45 7.83528 3.39797 24849 ft 516 kts 181°
2026-04-22 01:45 7.79906 3.39762 24852 ft 514 kts 181°
2026-04-22 01:46 7.76371 3.39593 24042 ft 512 kts 186°
2026-04-22 01:46 7.72862 3.39192 23418 ft 503 kts 187°
2026-04-22 01:46 7.69410 3.38776 22910 ft 493 kts 187°
2026-04-22 01:46 7.66020 3.38378 22361 ft 484 kts 187°
2026-04-22 01:47 7.62676 3.37997 21807 ft 476 kts 186°
2026-04-22 01:47 7.59382 3.37629 21114 ft 471 kts 186°
2026-04-22 01:47 7.56149 3.37272 20460 ft 466 kts 185°
2026-04-22 01:47 7.52966 3.36927 19793 ft 462 kts 185°
2026-04-22 01:48 7.49758 3.36578 19119 ft 457 kts 184°
2026-04-22 01:48 7.46606 3.36236 18456 ft 452 kts 184°
2026-04-22 01:48 7.43468 3.35897 17767 ft 449 kts 184°
2026-04-22 01:48 7.40407 3.35564 17100 ft 444 kts 184°
2026-04-22 01:49 7.37354 3.35233 16428 ft 440 kts 183°
2026-04-22 01:49 7.34316 3.34901 15715 ft 436 kts 183°
2026-04-22 01:49 7.31318 3.34575 15011 ft 432 kts 183°
2026-04-22 01:49 7.28341 3.34252 14295 ft 428 kts 182°
2026-04-22 01:50 7.25371 3.33929 13574 ft 424 kts 182°
2026-04-22 01:50 7.22435 3.33606 12831 ft 421 kts 182°
2026-04-22 01:50 7.19535 3.33295 12079 ft 419 kts 182°
2026-04-22 01:50 7.16659 3.32986 11477 ft 413 kts 182°
2026-04-22 01:51 7.13845 3.32674 11055 ft 393 kts 182°
2026-04-22 01:51 7.11184 3.32382 10640 ft 372 kts 182°
2026-04-22 01:51 7.08674 3.32112 10396 ft 349 kts 180°
2026-04-22 01:51 7.06333 3.31962 10247 ft 324 kts 177°
2026-04-22 01:52 7.04144 3.31874 9910 ft 311 kts 176°
2026-04-22 01:52 7.02000 3.31795 9413 ft 305 kts 177°
2026-04-22 01:52 6.99878 3.31714 8866 ft 301 kts 177°
2026-04-22 01:52 6.97805 3.31631 8295 ft 298 kts 178°
2026-04-22 01:53 6.95717 3.31545 7721 ft 295 kts 179°
2026-04-22 01:53 6.93704 3.31449 7351 ft 284 kts 179°
2026-04-22 01:53 6.91768 3.31361 6893 ft 278 kts 179°
2026-04-22 01:53 6.89843 3.31277 6434 ft 273 kts 180°
2026-04-22 01:54 6.87945 3.31192 5992 ft 271 kts 180°
2026-04-22 01:54 6.86054 3.31107 5581 ft 269 kts 181°
2026-04-22 01:54 6.84190 3.31023 5203 ft 268 kts 181°
2026-04-22 01:54 6.82323 3.30952 4814 ft 266 kts 180°
2026-04-22 01:55 6.80473 3.30958 4429 ft 263 kts 178°
2026-04-22 01:55 6.78673 3.30999 4051 ft 257 kts 178°
2026-04-22 01:55 6.76903 3.31052 3693 ft 251 kts 178°
2026-04-22 01:55 6.75156 3.31101 3376 ft 243 kts 179°
2026-04-22 01:56 6.73532 3.31132 3302 ft 219 kts 180°
2026-04-22 01:56 6.72097 3.31153 3312 ft 196 kts 181°
2026-04-22 01:56 6.70733 3.31168 2947 ft 201 kts 181°
2026-04-22 01:56 6.69269 3.31190 2135 ft 216 kts 180°
2026-04-22 01:57 6.67864 3.31206 1777 ft 188 kts 180°
2026-04-22 01:57 6.66617 3.31249 1527 ft 172 kts 176°
2026-04-22 01:57 6.65432 3.31292 1213 ft 169 kts 182°
2026-04-22 01:57 6.64249 3.31286 1016 ft 169 kts 181°
2026-04-22 01:58 6.63078 3.31277 845 ft 170 kts 181°
2026-04-22 01:58 6.61864 3.31277 682 ft 174 kts 180°
2026-04-22 01:58 6.60661 3.31295 448 ft 173 kts 179°
2026-04-22 01:58 6.59455 3.31309 239 ft 167 kts 179°
2026-04-22 01:59 6.58305 3.31319 79 ft 162 kts 179°
2026-04-22 01:59 6.57263 3.31331 74 ft 122 kts 179°
2026-04-22 01:59 6.56653 3.31346 74 ft 55 kts 170°
2026-04-22 01:59 6.56448 3.31425 80 ft 19 kts 148°
2026-04-22 02:00 6.56387 3.31509 83 ft 10 kts 78°
2026-04-22 02:00 6.56447 3.31545 85 ft 12 kts
2026-04-22 02:00 6.56555 3.31543 84 ft 18 kts 359°
2026-04-22 02:00 6.56702 3.31541 84 ft 22 kts 359°